Theta_e
314 318 321 326 332 338 340 345 344 347 345 343 345 345 346 346 346 351 342 336 336 339 340 336 334 333 333 334 336 338 341 344 344 344 344 343 339 333 331 329 329 327 326 330 338 336 328 323 320
315 320 322 335 333 334 338 340 345 344 341 345 345 345 345 347 345 342 341 335 336 338 340 338 335 332 330 329 328 329 333 338 339 341 341 340 334 329 327 326 325 324 322 322 323 322 320 319 319
319 318 326 330 334 332 337 336 340 342 341 342 346 346 345 347 343 341 338 334 336 339 340 338 336 332 330 328 327 325 324 328 334 337 336 331 327 324 323 325 327 328 328 325 322 321 320 320 320
317 323 327 331 329 332 333 338 341 342 342 340 343 348 345 344 342 341 337 333 334 340 337 336 338 334 331 330 329 326 321 320 325 328 328 325 323 324 327 328 327 325 328 326 323 325 326 323 323
319 323 327 329 329 330 331 330 331 342 342 341 344 348 347 343 343 342 339 333 331 335 339 335 338 336 333 331 330 325 320 320 320 321 322 323 325 328 327 328 327 324 326 326 327 331 332 331 327
324 326 325 323 326 328 328 328 329 335 341 342 343 347 346 343 344 342 342 337 336 328 332 331 336 338 335 332 330 324 321 322 322 323 323 327 328 328 330 332 331 324 325 329 332 334 336 337 339
324 327 324 324 324 324 324 325 327 328 328 331 342 346 347 343 344 343 342 341 334 327 330 326 332 338 336 333 330 324 322 323 323 324 328 329 329 331 333 335 332 328 325 330 333 335 338 339 341
324 328 327 326 325 324 327 323 324 326 327 332 336 343 349 343 343 342 342 340 335 328 341 326 331 337 337 333 331 325 322 324 326 327 330 331 331 332 334 335 333 332 325 331 333 335 338 339 342
318 325 323 323 325 326 324 326 323 324 329 335 341 346 345 343 343 341 341 341 329 330 336 341 339 339 337 335 332 327 322 325 328 328 330 331 333 333 334 335 335 336 330 328 332 336 336 338 341
316 319 322 322 325 325 324 323 324 331 333 342 346 344 344 343 343 341 339 340 331 327 328 339 340 336 338 336 333 330 322 327 329 328 331 332 332 333 335 336 336 338 337 335 333 335 337 338 340
317 317 319 322 322 322 324 324 320 334 342 344 346 345 344 342 342 340 339 338 335 326 328 333 331 336 338 337 335 332 326 324 329 330 331 334 334 334 334 335 336 338 338 338 337 337 338 338 337
319 318 318 317 320 321 323 322 325 331 342 342 347 345 342 342 341 340 339 335 336 339 330 330 333 336 337 337 336 334 331 322 330 332 333 334 334 334 334 334 335 336 337 338 338 337 337 337 337
319 321 320 318 319 320 320 322 324 324 327 340 345 345 342 340 341 340 338 332 327 327 327 328 332 335 337 337 337 336 333 325 326 333 332 334 334 333 332 333 334 335 335 336 336 337 336 335 336
320 318 320 322 323 321 322 324 321 336 342 346 345 346 344 341 341 340 338 335 331 327 328 326 328 332 335 337 336 336 335 332 323 331 333 332 335 334 333 332 332 333 333 334 335 335 334 333 334
322 321 321 320 321 323 321 321 322 340 345 346 346 345 345 343 342 341 340 339 335 332 330 328 327 326 327 331 334 335 335 334 327 324 333 333 331 334 334 333 332 332 333 333 333 333 332 332 332
318 318 321 319 319 318 321 324 330 344 345 346 345 345 344 344 345 344 341 340 339 337 335 332 331 329 326 325 324 324 329 332 330 325 325 333 333 331 331 333 333 334 335 337 339 339 338 335 332
316 319 318 319 317 318 319 322 339 344 345 345 345 345 344 343 342 343 343 343 342 342 341 339 337 336 328 326 325 325 324 325 326 327 324 324 332 334 333 332 333 335 337 338 338 338 339 338 337
319 319 319 321 317 318 321 329 345 345 345 345 344 344 344 343 342 342 342 343 343 343 343 342 341 339 332 331 328 325 325 324 323 323 324 324 323 328 333 333 333 333 334 337 339 338 338 338 337
318 318 319 319 319 320 322 336 345 344 344 344 344 343 342 340 342 342 341 341 342 342 342 343 343 342 332 330 331 326 334 335 334 335 331 322 323 324 325 330 333 332 333 334 335 337 338 337 337
317 319 320 321 319 321 332 341 341 343 344 344 343 342 341 341 343 343 343 342 342 342 342 341 342 342 336 331 332 336 333 335 337 338 337 336 337 333 330 329 332 336 337 337 337 337 336 335 333
319 320 321 324 331 336 336 341 342 339 338 340 341 341 340 342 344 344 344 343 343 342 342 341 341 342 340 337 336 338 338 337 337 337 337 338 338 338 338 337 337 338 334 330 332 337 336 335 332
320 320 319 328 329 333 326 330 340 341 342 341 340 341 340 342 343 343 344 344 343 343 342 341 341 340 340 339 339 338 338 337 337 340 341 340 339 338 337 337 337 337 336 336 337 336 337 336 336
321 316 317 323 325 326 327 330 337 338 344 343 340 341 340 338 340 341 341 341 342 342 342 342 340 339 339 338 338 338 338 340 341 340 340 340 339 339 338 337 336 336 335 335 335 335 335 335 334
314 316 316 316 322 327 318 320 327 341 342 342 339 340 339 336 335 335 333 333 336 340 342 342 342 342 341 340 339 339 340 340 340 340 340 339 338 337 335 334 334 332 333 332 331 331 332 331 332
317 319 320 322 323 325 315 318 325 334 339 340 341 338 338 334 331 330 327 329 333 336 339 340 340 341 341 341 341 340 340 340 340 339 337 335 333 331 326 323 321 319 319 320 324 327 329 328 329
317 320 324 326 323 318 316 320 321 320 327 329 332 335 335 333 330 327 328 330 332 334 335 335 335 334 334 334 335 335 334 333 330 328 326 323 320 318 315 313 312 312 312 313 314 315 319 323 324
317 319 316 319 316 318 317 319 322 328 330 329 329 331 334 333 329 326 325 325 325 323 323 322 320 321 320 319 320 319 319 318 317 315 313 311 310 309 308 309 309 309 310 310 311 312 313 313 315
320 316 320 319 323 321 318 319 321 325 327 329 329 330 332 331 329 325 322 320 319 317 317 316 315 315 314 314 312 311 310 309 308 307 306 307 307 308 308 308 309 309 309 309 309 309 310 311 311
317 319 316 318 319 323 322 320 317 324 326 328 329 329 330 330 328 324 320 318 319 317 315 313 312 311 310 309 308 307 307 306 306 306 307 307 307 307 307 307 308 308 308 308 308 308 307 307 307
315 319 321 323 322 317 319 320 322 324 324 324 327 326 328 329 328 326 321 320 320 318 315 312 311 309 308 307 307 306 306 306 306 306 306 306 306 306 307 307 307 307 308 308 307 307 306 306 305
Wind_Speed
13 8 3 2 3 2 2 2 0 3 2 2 0 1 1 3 1 2 11 24 26 33 30 27 25 23 22 21 21 20 21 20 18 16 15 13 12 11 10 9 8 6 7 7 7 5 4 4 6
11 9 4 1 3 3 1 2 6 4 1 2 2 3 2 3 5 7 21 21 29 32 30 28 25 22 21 20 18 17 18 18 18 17 15 13 13 10 9 9 8 9 8 8 8 7 7 8 9
13 11 3 1 2 5 1 1 3 2 4 2 3 3 3 4 4 16 19 23 32 31 29 28 26 23 20 18 16 14 15 16 17 17 16 14 12 11 10 10 10 10 10 10 10 10 10 11 12
12 6 4 4 9 6 3 5 7 0 5 2 3 5 5 5 6 7 22 26 29 29 27 28 27 24 21 18 15 13 13 16 16 16 15 14 13 13 12 11 10 10 10 11 12 13 13 14 13
15 4 3 4 7 6 5 8 6 1 0 3 3 3 4 6 3 8 21 25 27 29 26 27 26 24 22 19 15 12 13 15 15 15 15 14 14 14 13 12 10 10 12 13 14 14 13 13 12
5 3 3 12 7 5 8 10 9 8 7 3 4 6 5 5 4 14 19 23 24 28 26 26 26 24 22 19 15 12 14 15 16 16 16 15 15 15 14 11 10 11 13 14 15 14 13 10 8
5 4 6 3 5 6 7 4 6 4 7 9 7 7 6 9 9 17 19 22 26 27 25 26 26 25 22 19 16 13 14 15 16 17 17 16 15 14 13 9 9 10 13 15 15 12 9 8 7
4 3 5 6 7 4 1 1 1 5 8 5 8 6 7 19 16 21 21 22 24 25 22 26 26 26 24 20 16 14 15 16 16 16 16 16 15 14 12 9 10 10 12 14 13 11 8 5 4
6 5 10 9 9 4 4 2 0 7 9 7 11 4 8 23 23 24 24 22 23 24 23 21 24 26 26 22 18 15 16 16 17 16 16 16 15 14 13 12 11 10 10 12 12 10 7 4 3
10 7 10 5 7 4 1 1 8 4 8 10 12 9 18 26 27 27 27 25 27 27 27 23 24 27 27 24 21 18 17 18 18 17 17 16 15 14 14 14 14 12 12 10 11 10 8 6 6
8 9 7 6 9 2 1 7 5 8 11 16 29 23 27 29 28 25 23 22 24 26 26 25 26 28 27 26 23 20 18 19 18 17 17 16 15 15 16 16 16 15 14 13 12 11 10 9 9
6 12 8 14 6 5 4 6 11 6 4 7 18 26 32 32 29 26 24 23 22 22 26 24 25 27 27 26 23 21 19 19 20 18 17 16 15 15 16 18 18 17 16 14 14 13 12 11 11
14 7 14 18 15 14 11 12 6 14 13 6 22 23 31 29 25 22 21 21 22 23 23 25 25 26 26 25 24 22 20 19 20 19 18 17 16 15 15 17 18 18 17 16 15 15 14 14 14
10 25 17 7 14 11 10 9 4 2 9 14 26 25 28 29 26 23 23 23 23 22 21 22 23 24 24 25 24 23 21 19 20 21 19 17 16 15 15 16 17 18 18 17 17 17 16 16 16
12 4 13 17 15 9 14 7 6 6 14 20 20 21 22 22 21 22 21 21 21 21 20 20 20 21 21 22 22 23 22 20 19 21 20 18 17 17 16 16 17 16 17 17 17 18 19 18 18
6 5 9 4 15 6 13 12 4 10 16 18 19 20 18 15 14 16 19 20 20 19 20 20 18 17 17 19 18 17 19 20 20 21 22 21 19 18 18 19 19 18 18 18 18 17 18 18 18
2 4 7 2 9 7 9 8 7 12 15 18 19 18 16 17 18 20 20 20 19 19 20 19 19 15 16 17 16 17 17 18 19 20 21 23 22 21 20 20 21 21 20 21 20 20 19 20 20
7 6 3 3 6 8 10 8 10 12 16 16 16 16 14 13 15 15 18 20 21 21 21 21 21 19 18 16 16 16 16 16 18 19 21 21 23 23 23 22 22 23 24 24 24 24 24 23 24
5 5 3 2 5 6 11 11 8 9 15 17 15 15 13 15 14 12 14 17 19 19 18 20 23 22 23 21 17 18 16 13 13 15 17 19 21 23 26 26 26 26 25 26 27 28 26 24 26
6 6 7 4 2 5 8 10 6 7 9 13 15 16 15 16 15 13 14 14 14 15 18 19 23 23 24 24 20 16 18 18 17 16 21 19 18 21 23 25 25 22 21 24 28 29 29 28 28
10 11 5 3 8 6 14 6 8 4 7 9 10 12 14 18 19 17 15 13 12 14 16 18 21 24 25 25 23 20 17 18 20 22 24 23 23 24 21 23 22 27 27 27 31 32 31 35 33
11 10 5 13 8 5 4 9 8 8 9 11 16 17 17 21 20 17 15 12 10 11 13 16 20 22 22 24 25 24 23 24 23 21 19 21 21 19 25 29 29 32 32 33 27 22 24 26 30
5 8 8 10 5 12 5 4 7 6 11 15 20 21 21 18 21 18 15 14 13 12 12 11 13 18 20 21 22 22 23 20 19 19 19 19 19 19 19 19 18 16 13 12 13 15 17 20 22
12 8 6 3 4 5 3 3 4 10 20 17 18 23 23 19 18 17 16 16 16 15 14 14 13 12 13 16 18 19 20 20 20 20 19 18 18 16 15 14 14 15 15 16 17 18 20 19 21
5 8 5 6 5 1 1 4 2 14 12 14 21 24 23 21 20 19 18 18 18 18 16 15 14 14 14 14 15 18 18 16 15 16 16 14 12 10 9 8 7 7 8 8 10 11 13 15 18
5 4 4 6 4 3 1 4 2 2 3 5 9 20 23 22 20 22 22 22 20 19 18 16 14 13 13 12 12 12 12 12 11 9 8 8 8 7 7 7 7 8 8 8 9 10 12 13 15
6 3 2 7 2 3 3 2 5 4 4 2 9 16 23 23 22 24 23 21 20 19 18 16 15 15 14 13 12 11 10 10 9 9 9 9 9 8 7 6 6 7 8 9 10 11 11 12 14
4 10 4 2 6 5 2 2 3 4 5 5 9 17 19 21 23 25 26 23 22 19 18 17 16 14 13 13 11 10 10 9 8 8 8 7 6 6 6 6 6 7 7 8 9 10 11 13 15
5 3 4 4 3 5 4 3 5 6 8 8 3 8 15 23 25 27 27 24 21 18 18 17 15 14 13 12 11 10 9 8 7 6 6 6 5 4 4 4 6 8 9 10 11 12 13 13 14
2 3 7 7 7 2 1 3 5 7 10 11 8 3 10 16 21 23 24 24 23 20 18 18 17 15 14 13 12 12 11 11 10 9 8 6 5 4 5 7 9 10 11 12 13 15 17 18 18
Wind_Direction
213 213 227 326 261 295 250 189 145 172 230 281 271 234 212 33 7 15 154 168 173 170 170 165 164 164 165 165 165 165 166 166 168 170 170 168 161 157 162 162 159 163 161 161 162 162 151 135 131
194 182 167 96 251 254 231 201 215 158 136 88 256 137 114 69 42 125 146 163 173 173 170 168 166 166 164 164 164 166 169 172 173 173 173 169 164 168 172 169 164 161 152 149 150 144 133 129 122
175 161 154 235 208 230 175 354 312 130 135 48 96 69 57 35 8 142 157 160 171 173 172 171 170 168 167 165 166 170 174 176 175 172 170 167 167 169 165 160 157 159 151 145 137 130 127 123 116
156 135 74 230 229 252 211 103 38 188 204 200 77 62 69 44 131 141 157 160 172 173 175 174 173 171 171 171 171 175 178 178 176 173 170 168 163 162 160 155 154 153 149 146 138 133 128 122 112
159 134 165 226 241 267 249 252 260 268 45 121 122 120 81 109 118 146 157 165 173 175 173 178 175 175 175 174 174 177 176 174 175 174 169 164 160 159 154 149 143 138 146 149 140 133 125 121 119
137 150 191 222 223 252 272 254 242 223 225 139 148 141 123 139 143 153 165 169 173 177 176 179 178 179 178 176 174 173 173 171 168 166 164 162 160 158 154 147 139 130 147 146 145 141 134 127 117
180 187 215 216 246 255 259 260 231 246 257 244 149 169 147 172 175 165 176 172 175 177 178 181 180 180 180 180 176 172 172 170 165 164 165 162 159 159 158 154 149 137 152 154 157 154 143 129 114
171 219 181 216 213 227 169 250 238 283 289 221 181 194 174 177 179 168 171 166 171 178 176 181 180 181 182 181 178 174 174 172 170 170 168 165 162 163 166 167 160 150 158 163 167 164 150 144 124
167 224 225 210 182 187 149 326 100 298 250 189 173 166 177 169 178 163 161 162 174 177 179 179 178 182 183 184 181 179 180 180 178 175 175 172 169 170 173 174 168 163 162 171 177 178 176 189 223
202 226 215 207 196 177 141 238 329 264 190 178 157 152 159 167 175 167 169 172 180 182 183 181 182 184 185 186 185 185 185 186 186 182 180 180 180 181 179 179 178 178 172 185 187 198 212 217 237
201 231 202 213 212 229 250 303 320 306 198 194 174 160 162 167 171 174 178 182 182 183 184 188 187 188 189 191 191 190 191 192 191 190 188 188 188 190 189 186 188 191 193 192 207 211 224 236 239
226 229 227 229 220 264 274 314 314 269 212 232 186 168 168 171 176 180 181 182 182 185 188 190 191 192 194 198 197 200 199 198 196 196 195 193 192 191 193 193 197 199 206 210 212 219 231 241 247
229 238 230 238 250 261 279 277 272 267 268 238 187 172 169 172 176 179 182 185 188 188 190 194 196 197 201 203 205 206 207 206 203 202 202 200 198 198 198 200 203 209 215 220 229 231 235 245 250
213 226 237 251 242 241 239 260 207 254 170 158 173 173 172 175 178 183 188 190 193 194 191 195 199 203 207 208 212 214 214 214 212 209 209 209 208 207 209 209 211 216 223 229 234 242 244 246 250
243 240 237 246 235 228 217 239 223 168 166 151 162 170 165 172 181 190 194 198 199 203 205 201 201 208 209 214 218 220 222 221 219 217 216 216 217 218 219 220 222 225 229 236 242 247 252 253 253
201 210 235 190 195 211 190 200 148 166 161 159 161 161 156 170 184 197 205 207 211 213 217 214 212 212 214 217 220 223 225 226 225 223 222 222 223 225 228 231 233 233 235 239 246 249 253 258 261
182 198 212 165 185 159 210 182 157 164 172 163 164 155 158 178 197 210 216 224 227 231 228 227 225 219 222 221 219 221 223 226 228 229 231 229 231 231 235 238 239 240 244 249 250 255 257 257 261
178 198 190 182 148 170 184 127 150 169 172 165 160 155 159 165 196 213 221 229 230 228 234 233 229 222 218 221 218 217 221 226 230 235 236 237 240 241 243 245 250 253 256 258 260 262 263 262 260
159 163 185 168 181 177 191 139 153 170 172 167 165 158 154 179 188 200 212 221 226 229 227 227 224 221 215 220 214 211 208 214 222 234 239 234 241 244 245 246 249 253 259 264 267 268 265 263 264
205 239 242 97 4 200 164 133 123 157 183 184 170 161 168 177 174 187 206 212 212 213 214 211 214 214 212 217 221 219 221 223 230 241 243 246 256 255 252 254 261 260 267 270 274 273 276 269 275
221 228 218 194 117 76 145 144 171 125 132 161 180 175 179 180 181 187 194 203 209 205 211 211 210 216 217 217 217 225 227 234 241 244 252 257 261 262 266 263 262 267 259 260 263 265 260 259 259
220 215 197 151 172 164 232 187 210 182 173 193 196 197 187 192 195 196 197 207 213 211 207 208 211 217 220 221 224 228 236 241 247 250 252 254 259 258 261 257 253 254 252 255 262 268 269 267 266
223 145 169 167 172 143 155 217 135 181 203 203 201 199 197 197 200 193 193 203 212 214 208 205 208 211 217 223 225 228 229 232 241 248 249 251 257 266 266 265 265 266 260 251 253 257 258 266 266
142 108 76 98 173 165 112 273 181 192 209 207 203 201 196 193 195 193 196 205 206 206 204 204 207 208 210 217 219 219 225 235 239 236 240 246 255 262 262 258 258 261 259 256 259 260 262 264 262
142 160 162 190 201 190 33 223 68 208 207 213 208 200 194 191 192 193 197 195 194 193 197 201 201 204 204 204 208 215 222 224 224 231 240 245 249 254 258 264 272 278 280 279 271 266 263 266 261
147 200 220 218 207 128 108 188 133 158 149 211 223 207 194 191 189 195 190 188 187 186 186 189 195 202 202 202 202 203 208 212 215 217 219 224 232 243 256 268 279 287 290 291 288 284 279 273 272
150 182 20 103 68 213 134 229 249 250 247 252 214 199 202 191 186 195 193 193 190 189 189 189 192 195 195 199 199 199 200 201 203 211 223 236 245 253 263 273 280 284 291 295 298 298 296 290 285
190 142 157 112 164 216 147 264 172 198 211 189 194 208 203 194 189 193 197 198 200 195 190 188 188 193 194 192 194 199 205 211 220 223 226 233 239 243 253 268 283 291 298 302 302 301 297 295 292
144 159 77 94 328 210 192 192 3 329 338 307 279 221 205 199 198 197 199 204 207 202 198 197 193 196 194 198 202 206 213 218 221 221 226 226 229 241 254 281 301 314 318 321 321 319 316 308 299
60 163 165 209 190 80 301 172 18 3 357 339 325 248 215 211 206 201 206 210 211 209 208 207 203 199 201 202 205 208 210 209 210 211 217 226 238 258 292 308 312 314 319 323 325 324 324 321 317